Tracking 26308 objects as of 30-Nov-2022
HD Live streaming from Space Station
objects crossing your sky now

COSMOS 1408 DEB

Track COSMOS 1408 DEB now!
10-day predictions


NORAD ID: 50312
Int'l Code: 1982-092AAD
Perigee: 416.7 km
Apogee: 447.2 km
Inclination: 82.5 °
Period: 93.1 minutes
Semi major axis: 6802 km
RCS: Unknown
Launch date: September 16, 1982
Source: Commonwealth of Independent States (former USSR) (CIS)
Launch site: PLESETSK MISSILE AND SPACE COMPLEX (PKMTR)

Note: This is SATELLITE DEBRIS
aabbcc
Your satellite tracking list
Your tracking list is empty




NASA's NSSDC Master Catalog

Two Line Element Set (TLE):
1 50312U 82092AAD 22333.80826145  .00072074  00000-0  13920-2 0  9996
2 50312  82.5259 101.3714 0022365 128.5751 231.7507 15.47238948 54317
Source of the keplerian elements: AFSPC